Simultaneous Nadir Overpasses (SNOs) Predictions

Prediction of SNOs between LANDSAT-8 and TERRA Satellite Orbit:

Table of predicted SNOs for the next 14.0 days since TLE Epoch: 10/26/2024
Index Date (LANDSAT-8) Time (LANDSAT-8) Lat,Lon (LANDSAT-8) SZA (LANDSAT-8 ) Date (TERRA) Time (TERRA) Lat,Lon (TERRA) SZA (TERRA ) Distance(km) Time Diff (sec)
1 11/07/2024 22:44:38 81.81, -94.21 103.81 11/07/2024 22:45:48 81.81, -94.15 103.85 0.88 70
2 11/07/2024 23:34:05 -81.81, 73.33 76.20 11/07/2024 23:35:09 -81.81, 73.34 76.16 0.43 64
3 11/08/2024 00:23:31 81.81,-118.97 103.82 11/08/2024 00:24:29 81.81,-118.96 103.86 0.41 58
4 11/08/2024 01:12:57 -81.81, 48.99 76.13 11/08/2024 01:13:49 -81.80, 48.95 76.11 0.67 52
5 11/08/2024 02:02:23 81.81,-143.31 103.89 11/08/2024 02:03:09 81.80,-143.35 103.91 0.59 46
6 11/08/2024 02:51:50 -81.81, 24.22 76.12 11/08/2024 02:52:30 -81.81, 24.14 76.11 1.33 40
7 11/08/2024 03:41:16 81.81,-168.08 103.90 11/08/2024 03:41:50 81.81,-168.16 103.91 1.19 34
8 11/08/2024 04:30:43 -81.81, -0.55 76.11 11/08/2024 04:31:11 -81.81, -0.67 76.10 2.08 28
9 11/08/2024 05:20:09 81.81, 167.15 103.92 11/08/2024 05:20:31 81.81, 167.03 103.92 1.92 22
10 11/08/2024 06:09:35 -81.80, -24.89 76.04 11/08/2024 06:09:51 -81.80, -25.06 76.05 2.74 16
11 11/08/2024 06:59:01 81.80, 142.81 103.98 11/08/2024 06:59:11 81.80, 142.64 103.97 2.59 10
12 11/08/2024 07:48:28 -81.80, -49.66 76.02 11/08/2024 07:48:31 -81.80, -49.45 76.00 3.34 3
13 11/08/2024 08:37:54 81.80, 118.04 104.00 11/08/2024 08:37:52 81.81, 117.83 103.97 3.27 2
14 11/08/2024 09:27:21 -81.80, -74.43 76.01 11/08/2024 09:27:12 -81.80, -74.26 76.00 2.61 9
15 11/08/2024 10:16:47 81.80, 93.27 104.01 11/08/2024 10:16:32 81.80, 93.44 104.02 2.82 15
16 11/08/2024 11:06:14 -81.80, -99.19 76.00 11/08/2024 11:05:53 -81.80, -99.07 75.99 1.91 21
17 11/08/2024 11:55:40 81.80, 68.50 104.02 11/08/2024 11:55:13 81.80, 68.63 104.03 2.13 27
18 11/08/2024 12:45:06 -81.80,-123.54 75.93 11/08/2024 12:44:33 -81.80,-123.47 75.94 1.26 33
19 11/08/2024 13:34:32 81.80, 44.16 104.09 11/08/2024 13:33:53 81.79, 44.24 104.08 1.50 39
20 11/08/2024 14:23:59 -81.80,-148.31 75.92 11/08/2024 14:23:14 -81.80,-148.28 75.94 0.49 45
21 11/08/2024 15:13:25 81.80, 19.38 104.10 11/08/2024 15:12:34 81.80, 19.43 104.08 0.74 51
22 11/08/2024 16:02:52 -81.80,-173.08 75.90 11/08/2024 16:01:55 -81.81,-173.09 75.94 0.38 57
23 11/08/2024 16:52:18 81.80, -5.39 104.12 11/08/2024 16:51:15 81.80, -5.38 104.08 0.26 63



Historial Predications of SNOs between LANDSAT-8 and TERRA
